Regional Weather Roundup
Issued by NWS State College, PA

Home | Current Version | Previous Version | Text Only | Print | Product List | Glossary Off
Versions: 1 2 3 4 5 6 7 8 9 10 11 12 13 14 15 16 17 18 19 20 21 22 23 24 25 26 27 28 29 30 31 32 33 34 35 36 37 38 39 40 41 42 43 44 45 46 47 48 49 50

000
ASUS41 KCTP 281810
RWRCTP

REGIONAL WEATHER ROUNDUP
NATIONAL WEATHER SERVICE STATE COLLEGE PA
200 PM EDT THU MAY 28 2015

Note: "fair" indicates few or no clouds below 12,000 feet with no
significant weather and/or obstructions to visibility.

* = STATION THAT DOES NOT REPORT PRECIPITATION /E.G. RAIN...SNOW...ETC/
    THUNDER OR FOG.

PAZ002>004-007>009-013>016-020>023-029>032-281900-
WESTERN PENNSYLVANIA

CITY           SKY/WX    TMP DP  RH WIND       PRES   REMARKS
ERIE           SUNNY     69  54  58 NW7       30.29S
MEADVILLE      SUNNY     75  52  44 N8        30.29F
FRANKLIN*      SUNNY     73  54  49 N7        30.31S
NEW CASTLE     FAIR      77  56  48 CALM      30.29S
BEAVER COUNTY  SUNNY     75  57  53 NE3       30.29S
BUTLER*        CLOUDY    73  55  53 NE6       30.30F
PITTSBURGH INT CLOUDY    76  58  53 N6        30.27S
PITTSBURGH     PTSUNNY   75  54  47 VRB6      30.26R
INDIANA*       SUNNY     77  54  44 CALM      30.30S
LATROBE        PTSUNNY   77  59  53 N7        30.28S
WASHINGTON CO* CLOUDY    75  63  64 N3        30.28F
$$

PAZ004>006-010>012-017>019-024>028-033>037-041-042-045-046-049>053-281900-
CENTRAL PENNSYLVANIA

CITY           SKY/WX    TMP DP  RH WIND       PRES   REMARKS
BRADFORD         N/A     72  51  47 MISG      30.30S
DUBOIS         MOSUNNY   75  53  46 N7        30.29S
CLEARFIELD     MOSUNNY   79  51  37 N10G20    30.27S
JOHNSTOWN      MOSUNNY   74  55  51 NW13      30.29R
ALTOONA        MOSUNNY   79  55  43 NW13      30.26R
STATE COLLEGE  MOSUNNY   79  54  41 NW9       30.24S
WILLIAMSPORT   SUNNY     84  51  31 W16G22    30.18R HAZE
SELINSGROVE    MOSUNNY   85  56  37 N3        30.19S
FT INDIANTOWN  MOSUNNY   80  64  57 VRB5      30.19S
CAPITAL CITY   MOSUNNY   83  61  47 N9        30.19R
HARRISBURG     MOSUNNY   84  64  50 W7        30.18R
YORK           MOSUNNY   84  65  52 VRB3      30.18F
$$

PAZ038>040-043-044-047-048-054-055-060>062-067>071-281900-
EASTERN PENNSYLVANIA

CITY           SKY/WX    TMP DP  RH WIND       PRES   REMARKS
SCRANTON       PTSUNNY   85  56  37 NW7G17    30.17S
MOUNT POCONO   MOSUNNY   79  59  50 W12G18    30.21F
ALLENTOWN      PTSUNNY   85  65  51 SW9       30.15F
QUAKERTOWN*    PTCLDY    84  64  51 W7        30.18S
READING        MOSUNNY   86  63  45 W10G18    30.16S
LANCASTER      MOSUNNY   86  64  47 NW10      30.17F
COATESVILLE    PTCLDY    82  66  57 W9        30.19F
POTTSTOWN      MOSUNNY   82  67  60 VRB5      30.17F
BLUE BELL      MOSUNNY   79  72  78 CALM      30.16S
DOYLESTOWN     MOSUNNY   86  65  49 W9        30.15F
WILLOW GROVE   NOT AVBL
NORTH PHILA    MOSUNNY   87  66  49 VRB6      30.16F
PHILADELPHIA   PTSUNNY   85  66  53 S7        30.14F
$$


USA.gov is the U.S. government's official web portal to all federal, state and local government web resources and services.